Location: Grisols
(45.0093°N, 3.1167°E)
Time: 10:16:31
(UTC+00:00)

STARLINK-29 - Pass Details

Date: 21 October 2019
Orbit: 437 x 449 km, 53.0° (Epoch: 14 November)

Event Time Altitude Azimuth Distance (km) Brightness Sun altitude
Rises 17:21:12 0° 303° (WNW) 2,431 7.7 -5.7°
Reaches altitude 10° 17:23:27 10° 313° (NW) 1,562 6.5 -6.1°
Maximum altitude 17:26:41 33° 20° (NNE) 766 4.1 -6.6°
Drops below altitude 10° 17:29:54 10° 86° (E) 1,564 5.2 -7.2°
Enters shadow 17:30:03 - 87° (E) 1,614 5.3 -7.2°
